| time (UTC) | temp F | wind direction | speed knots | gust knots | rain 1hr in | rain 24hr in | rain mn in | humidity % | barometer mb |
| 20260506223104 | 85 | 30 | 1.7 | 2.6 | 0.00 | 0.00 | 0.00 | 65 | 1008.3 |
| 20260506222601 | 84 | 5 | 1.7 | 3.5 | 0.00 | 0.00 | 0.00 | 66 | 1008.3 |
| 20260506222058 | 84 | 118 | 1.7 | 2.6 | 0.00 | 0.00 | 0.00 | 66 | 1008.4 |
| 20260506221555 | 84 | 25 | 2.6 | 2.6 | 0.00 | 0.00 | 0.00 | 66 | 1008.4 |
| 20260506221053 | 84 | 109 | 1.7 | 1.7 | 0.00 | 0.00 | 0.00 | 66 | 1008.3 |
| 20260506220549 | 84 | 28 | 3.5 | 3.5 | 0.00 | 0.00 | 0.00 | 66 | 1008.2 |
| 20260506220045 | 84 | 110 | 2.6 | 2.6 | 0.00 | 0.00 | 0.00 | 66 | 1008.2 |
| 20260506215542 | 85 | 34 | 2.6 | 3.5 | 0.00 | 0.00 | 0.00 | 66 | 1008.4 |
| 20260506215037 | 85 | 90 | 1.7 | 1.7 | 0.00 | 0.00 | 0.00 | 66 | 1008.3 |
| 20260506214535 | 85 | 50 | 0.9 | 1.7 | 0.00 | 0.00 | 0.00 | 65 | 1008.3 |
| 20260506214032 | 85 | 59 | 0.9 | 1.7 | 0.00 | 0.00 | 0.00 | 65 | 1008.3 |
| 20260506213530 | 85 | 348 | 3.5 | 3.5 | 0.00 | 0.00 | 0.00 | 64 | 1008.3 |
| 20260506213027 | 85 | 352 | 2.6 | 3.5 | 0.00 | 0.00 | 0.00 | 64 | 1008.2 |
| 20260506212523 | 86 | 28 | 2.6 | 3.5 | 0.00 | 0.00 | 0.00 | 64 | 1008.1 |
| 20260506212018 | 86 | 337 | 2.6 | 3.5 | 0.00 | 0.00 | 0.00 | 64 | 1008.2 |
| 20260506211514 | 86 | 66 | 1.7 | 2.6 | 0.00 | 0.00 | 0.00 | 63 | 1008.3 |
| 20260506211012 | 86 | 62 | 2.6 | 2.6 | 0.00 | 0.00 | 0.00 | 63 | 1008.3 |
| 20260506210508 | 86 | 40 | 2.6 | 3.5 | 0.00 | 0.00 | 0.00 | 63 | 1008.4 |
| 20260506210005 | 87 | 55 | 1.7 | 2.6 | 0.00 | 0.00 | 0.00 | 62 | 1008.3 |
| 20260506205501 | 87 | 170 | 2.6 | 2.6 | 0.00 | 0.00 | 0.00 | 62 | 1008.3 |
| 20260506204957 | 87 | 54 | 1.7 | 1.7 | 0.00 | 0.00 | 0.00 | 61 | 1008.5 |
| 20260506204456 | 88 | 5 | 3.5 | 7.0 | 0.00 | 0.00 | 0.00 | 59 | 1008.4 |
| 20260506203952 | 88 | 26 | 1.7 | 2.6 | 0.00 | 0.00 | 0.00 | 59 | 1008.5 |
| 20260506203450 | 88 | 293 | 3.5 | 3.5 | 0.00 | 0.00 | 0.00 | 58 | 1008.7 |
| 20260506202946 | 88 | 25 | 4.3 | 7.0 | 0.00 | 0.00 | 0.00 | 58 | 1008.7 |
| 20260506202444 | 89 | 32 | 5.2 | 8.7 | 0.00 | 0.00 | 0.00 | 57 | 1008.6 |
| 20260506201940 | 89 | 88 | 4.3 | 6.1 | 0.00 | 0.00 | 0.00 | 57 | 1008.7 |
| 20260506201438 | 89 | 59 | 5.2 | 7.0 | 0.00 | 0.00 | 0.00 | 56 | 1008.7 |
| 20260506200934 | 89 | 106 | 1.7 | 2.6 | 0.00 | 0.00 | 0.00 | 56 | 1008.8 |
| 20260506200430 | 89 | 37 | 4.3 | 7.0 | 0.00 | 0.00 | 0.00 | 56 | 1008.5 |
| 20260506195927 | 90 | 17 | 4.3 | 5.2 | 0.00 | 0.00 | 0.00 | 56 | 1008.7 |
| 20260506195424 | 90 | 12 | 1.7 | 2.6 | 0.00 | 0.00 | 0.00 | 55 | 1008.7 |
| 20260506194921 | 90 | 22 | 3.5 | 5.2 | 0.00 | 0.00 | 0.00 | 55 | 1008.5 |
| 20260506194418 | 90 | 28 | 5.2 | 7.8 | 0.00 | 0.00 | 0.00 | 55 | 1008.8 |
| 20260506193915 | 91 | 33 | 5.2 | 11.3 | 0.00 | 0.00 | 0.00 | 54 | 1008.7 |
| 20260506193412 | 91 | 32 | 2.6 | 3.5 | 0.00 | 0.00 | 0.00 | 54 | 1008.7 |
| 20260506192908 | 91 | 35 | 7.8 | 11.3 | 0.00 | 0.00 | 0.00 | 53 | 1008.7 |
| 20260506192405 | 91 | 330 | 5.2 | 6.1 | 0.00 | 0.00 | 0.00 | 53 | 1008.9 |
| 20260506191902 | 91 | 71 | 4.3 | 7.0 | 0.00 | 0.00 | 0.00 | 53 | 1008.8 |
| 20260506191358 | 91 | 359 | 8.7 | 9.6 | 0.00 | 0.00 | 0.00 | 52 | 1009.0 |
| 20260506190855 | 92 | 312 | 2.6 | 3.5 | 0.00 | 0.00 | 0.00 | 53 | 1008.9 |
| 20260506190352 | 91 | 44 | 2.6 | 2.6 | 0.00 | 0.00 | 0.00 | 53 | 1009.1 |
| 20260506185849 | 91 | 336 | 7.0 | 9.6 | 0.00 | 0.00 | 0.00 | 52 | 1009.1 |
| 20260506185346 | 91 | 325 | 3.5 | 3.5 | 0.00 | 0.00 | 0.00 | 52 | 1009.2 |
| 20260506184843 | 92 | 340 | 5.2 | 7.0 | 0.00 | 0.00 | 0.00 | 52 | 1009.5 |
| 20260506184340 | 92 | 19 | 2.6 | 2.6 | 0.00 | 0.00 | 0.00 | 52 | 1009.3 |
| 20260506183837 | 91 | 313 | 5.2 | 7.8 | 0.00 | 0.00 | 0.00 | 53 | 1009.4 |
| 20260506183332 | 92 | 8 | 7.8 | 9.6 | 0.00 | 0.00 | 0.00 | 52 | 1009.3 |
| 20260506182830 | 92 | 44 | 2.6 | 3.5 | 0.00 | 0.00 | 0.00 | 52 | 1009.4 |
| 20260506182327 | 92 | 24 | 3.5 | 5.2 | 0.00 | 0.00 | 0.00 | 53 | 1009.4 |
| 20260506181825 | 92 | 349 | 5.2 | 8.7 | 0.00 | 0.00 | 0.00 | 52 | 1009.5 |
| 20260506181322 | 92 | 41 | 3.5 | 5.2 | 0.00 | 0.00 | 0.00 | 53 | 1009.6 |
| 20260506180819 | 93 | 58 | 6.1 | 8.7 | 0.00 | 0.00 | 0.00 | 53 | 1009.5 |
| 20260506180315 | 93 | 358 | 4.3 | 5.2 | 0.00 | 0.00 | 0.00 | 53 | 1009.6 |
| 20260506175811 | 92 | 322 | 5.2 | 12.2 | 0.00 | 0.00 | 0.00 | 52 | 1009.8 |
| 20260506175308 | 92 | 64 | 5.2 | 8.7 | 0.00 | 0.00 | 0.00 | 53 | 1009.7 |
| 20260506174806 | 92 | 5 | 3.5 | 5.2 | 0.00 | 0.00 | 0.00 | 53 | 1010.0 |
| 20260506174303 | 92 | 61 | 2.6 | 3.5 | 0.00 | 0.00 | 0.00 | 53 | 1010.0 |
| 20260506173800 | 92 | 301 | 4.3 | 7.8 | 0.00 | 0.00 | 0.00 | 53 | 1009.9 |
| 20260506173257 | 92 | 55 | 4.3 | 6.1 | 0.00 | 0.00 | 0.00 | 53 | 1010.1 |
| 20260506172754 | 92 | 354 | 2.6 | 3.5 | 0.00 | 0.00 | 0.00 | 53 | 1010.2 |
| 20260506172250 | 92 | 343 | 7.0 | 8.7 | 0.00 | 0.00 | 0.00 | 55 | 1010.2 |
| 20260506171748 | 92 | 43 | 3.5 | 5.2 | 0.00 | 0.00 | 0.00 | 54 | 1010.3 |
| 20260506171245 | 92 | 38 | 3.5 | 7.8 | 0.00 | 0.00 | 0.00 | 52 | 1010.5 |
| 20260506170743 | 91 | 23 | 2.6 | 3.5 | 0.00 | 0.00 | 0.00 | 54 | 1010.5 |
| 20260506170239 | 91 | 40 | 5.2 | 8.7 | 0.00 | 0.00 | 0.00 | 54 | 1010.7 |
| 20260506165738 | 91 | 174 | 6.1 | 9.6 | 0.00 | 0.00 | 0.00 | 52 | 1010.6 |
| 20260506165234 | 91 | 12 | 5.2 | 6.1 | 0.00 | 0.00 | 0.00 | 54 | 1010.6 |
| 20260506164732 | 91 | 336 | 4.3 | 6.1 | 0.00 | 0.00 | 0.00 | 54 | 1010.8 |
| 20260506164228 | 91 | 47 | 6.1 | 8.7 | 0.00 | 0.00 | 0.00 | 54 | 1011.1 |
| 20260506163725 | 91 | 234 | 2.6 | 3.5 | 0.00 | 0.00 | 0.00 | 55 | 1011.0 |
| 20260506163220 | 91 | 20 | 8.7 | 9.6 | 0.00 | 0.00 | 0.00 | 54 | 1011.1 |
| 20260506162716 | 91 | 47 | 3.5 | 5.2 | 0.00 | 0.00 | 0.00 | 55 | 1011.2 |
| 20260506162214 | 91 | 48 | 5.2 | 7.0 | 0.00 | 0.00 | 0.00 | 54 | 1011.4 |
| 20260506161711 | 92 | 17 | 4.3 | 6.1 | 0.00 | 0.00 | 0.00 | 55 | 1011.5 |
| 20260506161208 | 90 | 25 | 5.2 | 11.3 | 0.00 | 0.00 | 0.00 | 55 | 1011.5 |
| 20260506160706 | 90 | 26 | 3.5 | 6.1 | 0.00 | 0.00 | 0.00 | 58 | 1011.7 |
| 20260506160202 | 91 | 23 | 2.6 | 5.2 | 0.00 | 0.00 | 0.00 | 57 | 1011.8 |
| 20260506155700 | 92 | 351 | 3.5 | 6.1 | 0.00 | 0.00 | 0.00 | 56 | 1011.9 |
| 20260506155157 | 91 | 56 | 2.6 | 3.5 | 0.00 | 0.00 | 0.00 | 56 | 1012.0 |
| 20260506153259 | 89 | 12 | 7.8 | 11.3 | 0.00 | 0.00 | 0.00 | 59 | 1012.7 |
| 20260506152756 | 89 | 356 | 6.1 | 7.8 | 0.00 | 0.00 | 0.00 | 59 | 1012.7 |
| 20260506152254 | 89 | 322 | 1.7 | 2.6 | 0.00 | 0.00 | 0.00 | 60 | 1012.9 |
| 20260506151752 | 89 | 36 | 1.7 | 2.6 | 0.00 | 0.00 | 0.00 | 60 | 1012.8 |
| 20260506151248 | 88 | 41 | 1.7 | 3.5 | 0.00 | 0.00 | 0.00 | 62 | 1012.9 |
| 20260506150745 | 88 | 317 | 2.6 | 3.5 | 0.00 | 0.00 | 0.00 | 61 | 1012.9 |
| 20260506150242 | 88 | 334 | 1.7 | 2.6 | 0.00 | 0.00 | 0.00 | 61 | 1012.9 |
| 20260506145739 | 87 | 55 | 5.2 | 7.0 | 0.00 | 0.00 | 0.00 | 61 | 1013.1 |
| 20260506145236 | 87 | 20 | 3.5 | 7.0 | 0.00 | 0.00 | 0.00 | 61 | 1013.1 |
| 20260506144733 | 88 | 95 | 1.7 | 3.5 | 0.00 | 0.00 | 0.00 | 61 | 1013.4 |
| 20260506144230 | 87 | 53 | 3.5 | 5.2 | 0.00 | 0.00 | 0.00 | 61 | 1013.4 |
| 20260506143728 | 87 | 18 | 0.9 | 1.7 | 0.00 | 0.00 | 0.00 | 60 | 1013.4 |
| 20260506143225 | 88 | 5 | 9.6 | 13.0 | 0.00 | 0.00 | 0.00 | 60 | 1013.5 |
| 20260506142724 | 87 | 17 | 6.1 | 7.8 | 0.00 | 0.00 | 0.00 | 62 | 1013.4 |
| 20260506142221 | 88 | 95 | 1.7 | 1.7 | 0.00 | 0.00 | 0.00 | 61 | 1013.5 |
| 20260506141719 | 86 | 63 | 0.9 | 0.9 | 0.00 | 0.00 | 0.00 | 62 | 1013.7 |
| 20260506141217 | 86 | 356 | 1.7 | 3.5 | 0.00 | 0.00 | 0.00 | 62 | 1013.7 |
| 20260506140714 | 86 | 316 | 3.5 | 5.2 | 0.00 | 0.00 | 0.00 | 63 | 1013.7 |
| 20260506140211 | 85 | 25 | 4.3 | 6.1 | 0.00 | 0.00 | 0.00 | 63 | 1013.9 |
| 20260506135708 | 85 | 86 | 2.6 | 3.5 | 0.00 | 0.00 | 0.00 | 64 | 1013.8 |
| 20260506135204 | 85 | 52 | 2.6 | 2.6 | 0.00 | 0.00 | 0.00 | 63 | 1013.9 |
| 20260506134701 | 84 | 51 | 1.7 | 1.7 | 0.00 | 0.00 | 0.00 | 65 | 1014.1 |
| 20260506134157 | 84 | 99 | 1.7 | 1.7 | 0.00 | 0.00 | 0.00 | 64 | 1014.0 |
| 20260506133654 | 85 | 14 | 2.6 | 3.5 | 0.00 | 0.00 | 0.00 | 63 | 1014.1 |
| 20260506133151 | 84 | 326 | 1.7 | 2.6 | 0.00 | 0.00 | 0.00 | 64 | 1014.1 |
| 20260506132649 | 83 | 56 | 4.3 | 7.0 | 0.00 | 0.00 | 0.00 | 66 | 1014.3 |
| 20260506132145 | 83 | 13 | 3.5 | 3.5 | 0.00 | 0.00 | 0.00 | 66 | 1014.1 |
| 20260506131643 | 83 | 48 | 2.6 | 2.6 | 0.00 | 0.00 | 0.00 | 65 | 1014.4 |
| 20260506131139 | 84 | 284 | 2.6 | 2.6 | 0.00 | 0.00 | 0.00 | 63 | 1014.3 |
| 20260506130636 | 84 | 27 | 2.6 | 6.1 | 0.00 | 0.00 | 0.00 | 63 | 1014.4 |
| 20260506130133 | 83 | 54 | 1.7 | 2.6 | 0.00 | 0.00 | 0.00 | 65 | 1014.5 |
| 20260506125631 | 83 | 58 | 1.7 | 1.7 | 0.00 | 0.00 | 0.00 | 65 | 1014.4 |
| 20260506125129 | 82 | 72 | 2.6 | 5.2 | 0.00 | 0.00 | 0.00 | 65 | 1014.4 |
| 20260506124626 | 82 | 352 | 5.2 | 7.8 | 0.00 | 0.00 | 0.00 | 66 | 1014.5 |
| 20260506124124 | 82 | 227 | 0.9 | 1.7 | 0.00 | 0.00 | 0.00 | 67 | 1014.5 |
| 20260506123622 | 81 | 31 | 3.5 | 5.2 | 0.00 | 0.00 | 0.00 | 68 | 1014.6 |
| 20260506123120 | 81 | 55 | 2.6 | 3.5 | 0.00 | 0.00 | 0.00 | 67 | 1014.5 |
| 20260506122616 | 81 | 2 | 1.7 | 2.6 | 0.00 | 0.00 | 0.00 | 67 | 1014.6 |
| 20260506122114 | 81 | 36 | 1.7 | 2.6 | 0.00 | 0.00 | 0.00 | 68 | 1014.6 |
| 20260506121612 | 80 | 86 | 1.7 | 2.6 | 0.00 | 0.00 | 0.00 | 69 | 1014.7 |
| 20260506121108 | 79 | 28 | 1.7 | 2.6 | 0.00 | 0.00 | 0.00 | 71 | 1014.4 |
| 20260506120606 | 79 | 58 | 1.7 | 3.5 | 0.00 | 0.00 | 0.00 | 71 | 1014.5 |
| 20260506115601 | 78 | 78 | 0.0 | 0.9 | 0.00 | 0.00 | 0.00 | 71 | 1014.4 |
| 20260506115059 | 78 | 144 | 0.9 | 1.7 | 0.00 | 0.00 | 0.00 | 73 | 1014.3 |
| 20260506114556 | 77 | 50 | 0.9 | 1.7 | 0.00 | 0.00 | 0.00 | 73 | 1014.5 |
| 20260506114054 | 77 | 341 | 3.5 | 5.2 | 0.00 | 0.00 | 0.00 | 73 | 1014.3 |
| 20260506113552 | 77 | 20 | 1.7 | 1.7 | 0.00 | 0.00 | 0.00 | 73 | 1014.3 |
| 20260506113049 | 78 | 146 | 0.9 | 0.9 | 0.00 | 0.00 | 0.00 | 72 | 1014.3 |
| 20260506112545 | 77 | 32 | 3.5 | 6.1 | 0.00 | 0.00 | 0.00 | 72 | 1014.4 |
| 20260506112043 | 77 | 28 | 1.7 | 1.7 | 0.00 | 0.00 | 0.00 | 72 | 1014.4 |
| 20260506111541 | 78 | 62 | 2.6 | 2.6 | 0.00 | 0.00 | 0.00 | 72 | 1014.3 |
| 20260506111038 | 77 | 73 | 0.9 | 1.7 | 0.00 | 0.00 | 0.00 | 72 | 1014.3 |
| 20260506110536 | 77 | 10 | 1.7 | 1.7 | 0.00 | 0.00 | 0.00 | 73 | 1014.0 |
| 20260506110033 | 77 | 271 | 1.7 | 1.7 | 0.00 | 0.00 | 0.00 | 72 | 1014.3 |
| 20260506105528 | 77 | 63 | 1.7 | 2.6 | 0.00 | 0.00 | 0.00 | 72 | 1014.3 |
| 20260506105026 | 77 | 6 | 1.7 | 2.6 | 0.00 | 0.00 | 0.00 | 72 | 1014.0 |
| 20260506104524 | 77 | 321 | 1.7 | 3.5 | 0.00 | 0.00 | 0.00 | 73 | 1014.1 |
| 20260506104016 | 76 | 52 | 0.0 | 0.9 | 0.00 | 0.00 | 0.00 | 73 | 1014.0 |
| 20260506103513 | 76 | 56 | 1.7 | 1.7 | 0.00 | 0.00 | 0.00 | 74 | 1014.0 |
| 20260506103010 | 76 | 90 | 0.9 | 1.7 | 0.00 | 0.00 | 0.00 | 74 | 1014.0 |
| 20260506102508 | 76 | 152 | 0.0 | 0.9 | 0.00 | 0.00 | 0.00 | 74 | 1014.3 |
| 20260506102005 | 76 | 30 | 1.7 | 1.7 | 0.00 | 0.00 | 0.00 | 73 | 1013.8 |
| 20260506101501 | 77 | 33 | 0.0 | 0.0 | 0.00 | 0.00 | 0.00 | 73 | 1014.0 |
| 20260506100959 | 76 | 13 | 6.1 | 7.0 | 0.00 | 0.00 | 0.00 | 72 | 1013.6 |
| 20260506100457 | 76 | 96 | 0.9 | 0.9 | 0.00 | 0.00 | 0.00 | 73 | 1013.6 |
| 20260506095955 | 77 | 63 | 1.7 | 1.7 | 0.00 | 0.00 | 0.00 | 73 | 1013.5 |
| 20260506095454 | 77 | 44 | 1.7 | 2.6 | 0.00 | 0.00 | 0.00 | 73 | 1013.5 |
| 20260506094949 | 77 | 60 | 3.5 | 3.5 | 0.00 | 0.00 | 0.00 | 72 | 1013.4 |
| 20260506094447 | 77 | 28 | 3.5 | 3.5 | 0.00 | 0.00 | 0.00 | 71 | 1013.3 |
| 20260506093944 | 78 | 12 | 3.5 | 3.5 | 0.00 | 0.00 | 0.00 | 70 | 1013.2 |
| 20260506093443 | 78 | 23 | 1.7 | 1.7 | 0.00 | 0.00 | 0.00 | 70 | 1013.0 |
| 20260506092940 | 77 | 23 | 1.7 | 1.7 | 0.00 | 0.00 | 0.00 | 70 | 1012.7 |
| 20260506092438 | 77 | 337 | 1.7 | 1.7 | 0.00 | 0.00 | 0.00 | 72 | 1013.0 |
| 20260506091934 | 77 | 100 | 1.7 | 2.6 | 0.00 | 0.00 | 0.00 | 73 | 1012.8 |
| 20260506091433 | 77 | 31 | 0.9 | 1.7 | 0.00 | 0.00 | 0.00 | 73 | 1012.7 |
| 20260506090930 | 76 | 27 | 2.6 | 3.5 | 0.00 | 0.00 | 0.00 | 74 | 1012.8 |
| 20260506090427 | 76 | 19 | 0.9 | 0.9 | 0.00 | 0.00 | 0.00 | 73 | 1012.4 |
| 20260506085924 | 76 | 36 | 0.0 | 0.9 | 0.00 | 0.00 | 0.00 | 76 | 1012.3 |
| 20260506085421 | 76 | 351 | 1.7 | 2.6 | 0.00 | 0.00 | 0.00 | 75 | 1012.4 |
| 20260506084917 | 76 | 292 | 0.0 | 0.9 | 0.00 | 0.00 | 0.00 | 75 | 1012.4 |
| 20260506084414 | 76 | 337 | 1.7 | 1.7 | 0.00 | 0.00 | 0.00 | 75 | 1012.3 |
| 20260506083909 | 76 | 66 | 0.9 | 1.7 | 0.00 | 0.00 | 0.00 | 74 | 1012.4 |
| 20260506083407 | 77 | 58 | 1.7 | 1.7 | 0.00 | 0.00 | 0.00 | 72 | 1012.2 |
| 20260506082904 | 77 | 120 | 0.9 | 1.7 | 0.00 | 0.00 | 0.00 | 71 | 1012.0 |
| 20260506082401 | 78 | 58 | 2.6 | 2.6 | 0.00 | 0.00 | 0.00 | 72 | 1012.1 |
| 20260506081857 | 77 | 204 | 1.7 | 2.6 | 0.00 | 0.00 | 0.00 | 72 | 1012.0 |
| 20260506081356 | 78 | 16 | 1.7 | 1.7 | 0.00 | 0.00 | 0.00 | 70 | 1012.3 |
| 20260506080853 | 77 | 359 | 0.9 | 1.7 | 0.00 | 0.00 | 0.00 | 72 | 1012.1 |
| 20260506080350 | 77 | 344 | 2.6 | 5.2 | 0.00 | 0.00 | 0.00 | 72 | 1011.9 |
| 20260506073333 | 78 | 318 | 2.6 | 2.6 | 0.00 | 0.00 | 0.00 | 70 | 1012.3 |
| 20260506072830 | 78 | 29 | 0.9 | 1.7 | 0.00 | 0.00 | 0.00 | 71 | 1012.2 |
| 20260506072328 | 77 | 18 | 1.7 | 3.5 | 0.00 | 0.00 | 0.00 | 71 | 1012.2 |
| 20260506071826 | 77 | 214 | 0.9 | 1.7 | 0.00 | 0.00 | 0.00 | 72 | 1012.3 |
| 20260506071323 | 77 | 101 | 1.7 | 1.7 | 0.00 | 0.00 | 0.00 | 73 | 1011.9 |
| 20260506070819 | 78 | 19 | 0.9 | 1.7 | 0.00 | 0.00 | 0.00 | 71 | 1012.0 |
| 20260506070316 | 77 | 26 | 1.7 | 2.6 | 0.00 | 0.00 | 0.00 | 72 | 1012.1 |
| 20260506062253 | 77 | 11 | 2.6 | 5.2 | 0.00 | 0.00 | 0.00 | 74 | 1012.4 |
| 20260506061749 | 77 | 80 | 1.7 | 1.7 | 0.00 | 0.00 | 0.00 | 74 | 1012.4 |
| 20260506061247 | 77 | 103 | 0.9 | 0.9 | 0.00 | 0.00 | 0.00 | 75 | 1012.4 |
| 20260506060745 | 77 | 45 | 2.6 | 6.1 | 0.00 | 0.00 | 0.00 | 73 | 1012.5 |
| 20260506060242 | 77 | 26 | 0.9 | 0.9 | 0.00 | 0.00 | 0.00 | 74 | 1012.2 |
| 20260506051214 | 78 | 38 | 3.5 | 5.2 | 0.00 | 0.00 | 0.00 | 72 | 1012.4 |
| 20260506050712 | 79 | 355 | 1.7 | 2.6 | 0.00 | 0.00 | 0.00 | 71 | 1012.1 |
| 20260506050209 | 78 | 28 | 1.7 | 2.6 | 0.00 | 0.00 | 0.00 | 72 | 1012.3 |
| 20260506044700 | 79 | 0 | 0.9 | 1.7 | 0.00 | 0.00 | 0.00 | 70 | 1012.4 |
| 20260506044157 | 78 | 320 | 0.9 | 0.9 | 0.00 | 0.00 | 0.00 | 72 | 1012.3 |
| 20260506043654 | 79 | 314 | 1.7 | 1.7 | 0.00 | 0.00 | 0.00 | 72 | 1012.2 |
| 20260506043152 | 78 | 30 | 2.6 | 3.5 | 0.00 | 0.00 | 0.00 | 72 | 1012.4 |
| 20260506042651 | 79 | 84 | 1.7 | 1.7 | 0.00 | 0.00 | 0.00 | 71 | 1012.3 |
| 20260506042148 | 79 | 310 | 0.9 | 0.9 | 0.00 | 0.00 | 0.00 | 72 | 1012.6 |
| 20260506041652 | 78 | 72 | 1.7 | 2.6 | 0.00 | 0.00 | 0.00 | 70 | 1012.4 |
| 20260506041143 | 78 | 102 | 1.7 | 1.7 | 0.00 | 0.00 | 0.00 | 73 | 1012.5 |
| 20260506040641 | 78 | 47 | 0.9 | 2.6 | 0.00 | 0.00 | 0.00 | 72 | 1012.3 |
| 20260506040137 | 79 | 39 | 0.9 | 0.9 | 0.00 | 0.00 | 0.00 | 72 | 1012.6 |
| 20260506035635 | 78 | 1 | 3.5 | 7.0 | 0.00 | 0.00 | 0.00 | 73 | 1012.6 |
| 20260506035131 | 79 | 6 | 1.7 | 2.6 | 0.00 | 0.00 | 0.00 | 72 | 1012.8 |
| 20260506034628 | 78 | 80 | 1.7 | 1.7 | 0.00 | 0.00 | 0.00 | 73 | 1012.6 |
| 20260506034125 | 79 | 67 | 0.9 | 1.7 | 0.00 | 0.00 | 0.00 | 72 | 1012.8 |
| 20260506033623 | 79 | 97 | 1.7 | 2.6 | 0.00 | 0.00 | 0.00 | 72 | 1012.6 |
| 20260506033119 | 78 | 38 | 0.9 | 1.7 | 0.00 | 0.00 | 0.00 | 72 | 1012.6 |
| 20260506032617 | 79 | 22 | 1.7 | 1.7 | 0.00 | 0.00 | 0.00 | 73 | 1012.5 |
| 20260506032113 | 78 | 142 | 2.6 | 2.6 | 0.00 | 0.00 | 0.00 | 72 | 1012.7 |
| 20260506031611 | 79 | 39 | 0.9 | 2.6 | 0.00 | 0.00 | 0.00 | 71 | 1012.6 |
| 20260506031107 | 78 | 77 | 2.6 | 3.5 | 0.00 | 0.00 | 0.00 | 73 | 1012.8 |
| 20260506030606 | 80 | 27 | 1.7 | 1.7 | 0.00 | 0.00 | 0.00 | 71 | 1012.9 |
| 20260506030103 | 79 | 69 | 0.9 | 1.7 | 0.00 | 0.00 | 0.00 | 72 | 1013.0 |
| 20260506025600 | 79 | 75 | 1.7 | 1.7 | 0.00 | 0.00 | 0.00 | 71 | 1013.1 |
| 20260506025055 | 79 | 35 | 1.7 | 1.7 | 0.00 | 0.00 | 0.00 | 72 | 1013.0 |
| 20260506024553 | 80 | 47 | 1.7 | 2.6 | 0.00 | 0.00 | 0.00 | 70 | 1012.9 |
| 20260506024049 | 80 | 36 | 1.7 | 2.6 | 0.00 | 0.00 | 0.00 | 72 | 1013.0 |
| 20260506023545 | 80 | 88 | 1.7 | 1.7 | 0.00 | 0.00 | 0.00 | 71 | 1013.2 |
| 20260506023043 | 80 | 24 | 1.7 | 5.2 | 0.00 | 0.00 | 0.00 | 71 | 1013.2 |
| 20260506022540 | 80 | 107 | 1.7 | 2.6 | 0.00 | 0.00 | 0.00 | 71 | 1013.2 |
| 20260506022038 | 80 | 16 | 0.9 | 0.9 | 0.00 | 0.00 | 0.00 | 72 | 1013.3 |
| 20260506021535 | 80 | 54 | 0.9 | 0.9 | 0.00 | 0.00 | 0.00 | 71 | 1013.2 |
| 20260506021032 | 80 | 63 | 0.9 | 0.9 | 0.00 | 0.00 | 0.00 | 71 | 1013.2 |
| 20260506020530 | 80 | 23 | 0.0 | 0.9 | 0.00 | 0.00 | 0.00 | 72 | 1013.2 |
| 20260506020027 | 80 | 352 | 1.7 | 2.6 | 0.00 | 0.00 | 0.00 | 71 | 1013.0 |
| 20260506015525 | 80 | 113 | 0.9 | 1.7 | 0.00 | 0.00 | 0.00 | 71 | 1013.0 |
| 20260506015021 | 80 | 123 | 0.0 | 0.0 | 0.00 | 0.00 | 0.00 | 72 | 1012.9 |
| 20260506014519 | 80 | 65 | 0.9 | 1.7 | 0.00 | 0.00 | 0.00 | 71 | 1013.0 |
| 20260506014014 | 80 | 85 | 0.0 | 0.0 | 0.00 | 0.00 | 0.00 | 72 | 1013.0 |
| 20260506013513 | 80 | 116 | 1.7 | 1.7 | 0.00 | 0.00 | 0.00 | 71 | 1013.1 |
| 20260506013009 | 81 | 66 | 0.9 | 1.7 | 0.00 | 0.00 | 0.00 | 70 | 1013.0 |
| 20260506012505 | 80 | 48 | 0.9 | 0.9 | 0.00 | 0.00 | 0.00 | 71 | 1013.1 |
| 20260506012002 | 80 | 25 | 0.9 | 0.9 | 0.00 | 0.00 | 0.00 | 70 | 1013.0 |
| 20260506011500 | 80 | 123 | 1.7 | 2.6 | 0.00 | 0.00 | 0.00 | 70 | 1013.0 |
| 20260506010956 | 81 | 70 | 2.6 | 2.6 | 0.00 | 0.00 | 0.00 | 68 | 1013.0 |
| 20260506010455 | 81 | 59 | 0.9 | 0.9 | 0.00 | 0.00 | 0.00 | 69 | 1013.0 |
| 20260506005951 | 80 | 12 | 1.7 | 1.7 | 0.00 | 0.00 | 0.00 | 70 | 1012.9 |
| 20260506005449 | 82 | 8 | 1.7 | 3.5 | 0.00 | 0.00 | 0.00 | 68 | 1012.9 |
| 20260506004943 | 81 | 52 | 1.7 | 1.7 | 0.00 | 0.00 | 0.00 | 69 | 1012.9 |
| 20260506004442 | 81 | 338 | 1.7 | 1.7 | 0.00 | 0.00 | 0.00 | 67 | 1012.9 |
| 20260506003938 | 81 | 48 | 0.9 | 1.7 | 0.00 | 0.00 | 0.00 | 68 | 1013.0 |
| 20260506003435 | 81 | 50 | 1.7 | 1.7 | 0.00 | 0.00 | 0.00 | 69 | 1012.9 |
| 20260506002931 | 82 | 357 | 2.6 | 2.6 | 0.00 | 0.00 | 0.00 | 67 | 1012.9 |
| 20260506002427 | 82 | 56 | 0.0 | 0.9 | 0.00 | 0.00 | 0.00 | 68 | 1012.7 |
| 20260506001922 | 81 | 60 | 1.7 | 1.7 | 0.00 | 0.00 | 0.00 | 68 | 1012.8 |
| 20260506001420 | 82 | 350 | 1.7 | 1.7 | 0.00 | 0.00 | 0.00 | 67 | 1012.7 |
| 20260506000917 | 82 | 74 | 1.7 | 1.7 | 0.00 | 0.00 | 0.00 | 68 | 1012.8 |
| 20260506000416 | 82 | 65 | 0.9 | 1.7 | 0.00 | 0.00 | 0.00 | 67 | 1012.8 |
| 20260505235911 | 81 | 63 | 1.7 | 1.7 | 0.00 | 0.00 | 0.00 | 70 | 1012.7 |
| 20260505235409 | 82 | 62 | 0.9 | 1.7 | 0.00 | 0.00 | 0.00 | 68 | 1012.7 |
| 20260505234906 | 82 | 42 | 1.7 | 1.7 | 0.00 | 0.00 | 0.00 | 70 | 1012.6 |
| 20260505234403 | 82 | 30 | 0.9 | 1.7 | 0.00 | 0.00 | 0.00 | 69 | 1012.5 |
| 20260505233900 | 82 | 18 | 0.9 | 1.7 | 0.00 | 0.00 | 0.00 | 69 | 1012.6 |
| 20260505233358 | 82 | 64 | 1.7 | 1.7 | 0.00 | 0.00 | 0.00 | 68 | 1012.5 |
| 20260505232855 | 83 | 342 | 1.7 | 1.7 | 0.00 | 0.00 | 0.00 | 69 | 1012.5 |
| 20260505232353 | 82 | 114 | 0.9 | 0.9 | 0.00 | 0.00 | 0.00 | 69 | 1012.3 |
| 20260505231849 | 83 | 123 | 0.0 | 0.9 | 0.00 | 0.00 | 0.00 | 69 | 1012.3 |
| 20260505231347 | 83 | 14 | 0.9 | 1.7 | 0.00 | 0.00 | 0.00 | 69 | 1012.5 |
| 20260505230845 | 83 | 49 | 0.9 | 1.7 | 0.00 | 0.00 | 0.00 | 69 | 1012.3 |
| 20260505230342 | 83 | 59 | 1.7 | 1.7 | 0.00 | 0.00 | 0.00 | 68 | 1012.5 |
| 20260505225838 | 84 | 77 | 1.7 | 2.6 | 0.00 | 0.00 | 0.00 | 68 | 1012.4 |
| 20260505225336 | 83 | 313 | 0.9 | 1.7 | 0.00 | 0.00 | 0.00 | 68 | 1012.4 |
| 20260505224830 | 84 | 91 | 1.7 | 1.7 | 0.00 | 0.00 | 0.00 | 68 | 1012.3 |
| 20260505224329 | 83 | 95 | 1.7 | 1.7 | 0.00 | 0.00 | 0.00 | 69 | 1012.3 |
| 20260505223825 | 82 | 75 | 0.0 | 0.0 | 0.00 | 0.00 | 0.00 | 70 | 1012.2 |
| 20260505223323 | 82 | 79 | 1.7 | 1.7 | 0.00 | 0.00 | 0.00 | 70 | 1012.3 |